[Iaude] MPEC T37: 2023 TT [a=1.57,e=0.33,i=28.1,H=23.9]

mpec at marsden.cfa.harvard.edu mpec at marsden.cfa.harvard.edu
Thu Oct 5 22:08:17 EDT 2023


M.P.E.C. 2023-T37                               Issued 2023 October 6, 02:05 UT

     The Minor Planet Electronic Circulars contain information on unusual
         minor planets, routine data on comets and natural satellites,
         and occasional editorial announcements.  They are published
    on behalf of Division F of the International Astronomical Union by the
          Minor Planet Center, Smithsonian Astrophysical Observatory,
                          Cambridge, MA 02138, U.S.A.
			  
             Prepared using the Tamkin Foundation Computer Network

                              MPC at CFA.HARVARD.EDU
            URL https://www.minorplanetcenter.net/    ISSN 1523-6714

                                    2023 TT                                     


Observations:
     K23T00T*1C2023 10 04.20360722 21 34.031+36 14 29.33         20.32GVET037G96
     K23T00T 1C2023 10 04.20842622 21 35.543+36 13 37.96         21.15GVET037G96
     K23T00T 1C2023 10 04.21322222 21 37.019+36 12 46.48         20.64GVET037G96
     K23T00T 1C2023 10 04.21802322 21 38.563+36 11 56.76         21.25GVET037G96
     K23T00T KC2023 10 04.23537922 21 43.584+36 08 49.43         21.5 GVET037H01
     K23T00T  C2023 10 04.24220822 21 45.709+36 07 36.20         21.7 GVET037H01
     K23T00T  C2023 10 04.24872222 21 47.739+36 06 26.45         20.7 GVET037H01
     K23T00T  C2023 10 04.25643622 21 50.148+36 05 03.46         20.1 GVET037H01
     K23T00T KC2023 10 04.36705322 22 25.763+35 45 02.16         20.41GVET037I52
     K23T00T KC2023 10 04.36860522 22 26.281+35 44 45.24         20.18GVET037I52
     K23T00T KC2023 10 04.37015822 22 26.789+35 44 27.78         20.50GVET037I52
     K23T00T KC2023 10 04.37171322 22 27.322+35 44 10.54         20.38GVET037I52
     K23T00T KC2023 10 05.11349222 26 59.680+33 23 42.65         20.57GVET037I52
     K23T00T KC2023 10 05.11507422 27 00.212+33 23 23.89         20.77GVET037I52
     K23T00T  C2023 10 05.28491422 27 57.279+32 49 10.10         20.6 GVET037654
     K23T00T  C2023 10 05.29317422 28 00.026+32 47 28.16         20.6 GVET037654
     K23T00T  C2023 10 05.36540122 28 24.699+32 32 28.62         20.2 GVET037654
     K23T00T  C2023 10 05.37351522 28 27.524+32 30 47.06         20.2 GVET037654
     K23T00T KC2023 10 06.05797822 32 53.80 +30 02 57.0          19.9 VuET037H21
     K23T00T KC2023 10 06.06357022 32 55.80 +30 01 42.0          20.4 VuET037H21
     K23T00T KC2023 10 06.06636622 32 56.80 +30 01 04.4          20.2 VuET037H21
     K23T00T KC2023 10 06.06823022 32 57.44 +30 00 39.0          20.4 VuET037H21

Observer details:
654 Table Mountain Observatory, Wrightwood-PHMC.  Observers N. Evans, P. Choi,
    N. Saini, C. Zhai, R. Trahan, M. Shao.  1.0-m Reflector + CCD.
G96 Mt. Lemmon Survey.  Observer G. J. Leonard.  Measurers E. C. Beshore, D.
    Fay, J. B. Fazekas, D. C. Fuls, A. R. Gibbs, A. D. Grauer, H. Groeller, J.
    K. Hogan, R. A. Kowalski, S. M. Larson, G. J. Leonard, D. Rankin, R. L.
    Seaman, F. C. Shelly, K. W. Wierzchos.  1.5-m reflector + 10K CCD.
H01 Magdalena Ridge Observatory, Socorro.  Observers W. H. Ryan, E. V. Ryan.
    Measurer W. H. Ryan.  2.4-m f/8.9 Ritchey-Chretien + CCD.
H21 Astronomical Research Observatory, Westfield.  Observer R. Holmes.
    Measurers T. Linder, R. Holmes, L. Horn.  0.76-m f/3.0 astrograph + CCD.
I52 Steward Observatory, Mt. Lemmon Station.  Observer D. Rankin.  Measurers
    E. C. Beshore, D. Fay, J. B. Fazekas, D. C. Fuls, A. R. Gibbs, A. D.
    Grauer, H. Groeller, J. K. Hogan, R. A. Kowalski, S. M. Larson, G. J.
    Leonard, D. Rankin, R. L. Seaman, F. C. Shelly, K. W. Wierzchos.  1.0-m
    prime focus + CCD.

Orbital elements:
2023 TT                                                  Earth MOID = 0.0637 AU
Epoch 2023 Sept. 13.0 TT = JDT 2460200.5                Veres                   
M 335.36450              (2000.0)            P               Q                  
n   0.50027263     Peri.  200.90211     +0.80595867     -0.57654671             
a   1.5715621      Node   196.54114     +0.58764945     +0.80658276             
e   0.3344993      Incl.   28.13573     +0.07140546     -0.13045363             
P   1.97           H   23.98          G   0.15           U   8                  
Residuals in seconds of arc
231004 G96  0.5-  0.1+    231004 I52  0.1-  0.3+    231005 654  0.0   0.4-
231004 G96  0.2-  0.2-    231004 I52  0.0   0.5+    231005 654  0.0   0.0
231004 G96  0.3-  0.9-    231004 I52  0.1-  0.2+    231006 H21  0.0   0.2-
231004 G96  0.5+  0.3+    231004 I52  0.2+  0.1+    231006 H21  0.0   0.0
231004 H01  0.1+  0.5+    231005 I52  0.0   0.0     231006 H21  0.0   0.1+
231004 H01  0.0   0.3+    231005 I52  0.1+  0.0     231006 H21  0.3-  0.2-
231004 H01  0.0   0.3+    231005 654  0.1+  0.3-
231004 H01  0.0   0.2+    231005 654  0.2-  0.3-

Ephemeris:
2023 TT                  a,e,i = 1.57, 0.33, 28                  q = 1.0459
Date    TT    R. A. (2000) Decl.     Delta      r    Elong.  Phase     V
2023 09 06    21 16 44.9 +59 26 45   0.3388  1.1725   110.9    53.5    23.9
...
2023 09 21    21 32 18.5 +55 05 07   0.2130  1.1177   117.2    53.1    22.8
...
2023 09 29    21 56 19.3 +47 17 44   0.1474  1.0936   125.2    48.5    21.8
...
2023 10 05    22 26 15.0 +33 46 23   0.1036  1.0784   137.1    39.2    20.8
2023 10 06    22 32 28.4 +30 16 30   0.09735 1.0761   139.8    36.9    20.6
2023 10 07    22 39 04.9 +26 17 06   0.09162 1.0739   142.6    34.4    20.4
...
2023 10 13    23 27 02.8 -08 12 30   0.07368 1.0624   149.8    28.2    19.7
...
2023 10 21    00 48 31.2 -48 33 27   0.1041  1.0515   119.9    55.1    21.2
...
2023 11 05    03 03 10.5 -65 53 19   0.2178  1.0465    98.5    69.6    23.2

M. P. C. Staff               (C) Copyright 2023 MPC           M.P.E.C. 2023-T37





More information about the Iaude mailing list